Grant County, OR

5:33 PM PDT on October 23, 2017 (GMT -0700)
Grant County Regional

Weather History for KGCD - September, 2013

Change the Weather History Date:

Sunday, September 15, 2013

  Actual Average (KBNO) Record (KBNO)
Temperature  
Mean Temperature 76 °F -  
Max Temperature 90 °F 73 °F 91 °F (1995)
Min Temperature 62 °F 35 °F 24 °F (1944)
Cooling Degree Days 11    
Growing Degree Days 26 (Base 50)    
Moisture  
Dew Point 49 °F    
Average Humidity 44    
Maximum Humidity 72    
Minimum Humidity 17    
Precipitation  
Precipitation 0.00 in - - ()
Sea Level Pressure  
Sea Level Pressure 29.84 in    
Wind  
Wind Speed 7 mph (SE)    
Max Wind Speed 26 mph    
Max Gust Speed 36 mph    
Visibility 10 miles    
Events Thunderstorm    
Averages and records for this station are not official NWS values.
T = Trace of Precipitation, MM = Missing Value Source: NWS Daily Summary

Daily Weather History Graph

Daily Weather History Graph

Search for Another Location

Airport or City:

Trip Planner

Search our weather history database for the weather conditions in past years. The results will help you decide how hot, cold, wet, or windy it might be!

Date:

Astronomy

Sep. 15, 2013 Rise Set
Actual Time 6:35 AM PDT 7:05 PM PDT
Civil Twilight 6:06 AM PDT 7:34 PM PDT
Nautical Twilight 5:31 AM PDT 8:09 PM PDT
Astronomical Twilight 4:55 AM PDT 8:44 PM PDT
Moon 4:43 PM PDT (9/15) 2:10 AM PDT (9/15)
Length of Visible Light 13h 28m
Length of Day
12h 30m
Waxing Gibbous, 83% of the Moon is Illuminated
Sep 15
Waxing Gibbous
Sep 19
Full
Sep 26
Last Quarter
Oct 4
New
Oct 11
First Quarter

Hourly Weather History & Observations

Time (PDT) Temp. Dew Point Humidity Pressure Visibility Wind Dir Wind Speed Gust Speed Precip Events Conditions
12:15 AM 64.6 °F 49.3 °F 58% 29.89 in 10.0 mi SE 9.2 mph - N/A   Clear
12:35 AM 63.9 °F 49.6 °F 60% 29.89 in 10.0 mi ESE 5.8 mph - N/A   Clear
12:55 AM 63.1 °F 48.9 °F 60% 29.89 in 10.0 mi SE 8.1 mph - N/A   Clear
1:15 AM 63.5 °F 48.4 °F 58% 29.89 in 10.0 mi ESE 4.6 mph - N/A   Clear
1:35 AM 63.0 °F 48.6 °F 59% 29.89 in 10.0 mi ESE 4.6 mph - N/A   Clear
1:55 AM 63.0 °F 48.6 °F 59% 29.89 in 10.0 mi East 3.5 mph - N/A   Clear
2:15 AM 62.1 °F 48.9 °F 62% 29.89 in 10.0 mi ENE 3.5 mph - N/A   Clear
2:35 AM 63.3 °F 48.9 °F 59% 29.89 in 10.0 mi Calm Calm - N/A   Clear
2:55 AM 63.7 °F 48.2 °F 57% 29.88 in 10.0 mi ENE 3.5 mph - N/A   Clear
3:15 AM 64.2 °F 48.4 °F 56% 29.88 in 10.0 mi Calm Calm - N/A   Clear
3:35 AM 62.1 °F 48.6 °F 61% 29.88 in 10.0 mi Calm Calm - N/A   Clear
3:55 AM 64.8 °F 49.3 °F 57% 29.88 in 10.0 mi ESE 4.6 mph - N/A   Clear
4:15 AM 63.1 °F 49.5 °F 61% 29.88 in 10.0 mi SE 3.5 mph - N/A   Clear
4:35 AM 64.9 °F 50.5 °F 60% 29.87 in 10.0 mi ESE 4.6 mph - N/A   Clear
4:55 AM 64.2 °F 50.4 °F 61% 29.87 in 10.0 mi ESE 3.5 mph - N/A   Clear
5:15 AM 63.7 °F 50.5 °F 62% 29.87 in 10.0 mi SE 4.6 mph - N/A   Clear
5:35 AM 65.1 °F 50.9 °F 60% 29.87 in 10.0 mi ESE 3.5 mph - N/A   Clear
5:55 AM 62.4 °F 50.5 °F 65% 29.87 in 10.0 mi Calm Calm - N/A   Clear
6:15 AM 64.9 °F 50.9 °F 60% 29.87 in 10.0 mi ESE 4.6 mph - N/A   Clear
6:35 AM 66.0 °F 50.9 °F 58% 29.87 in 10.0 mi Calm Calm - N/A   Clear
6:55 AM 67.1 °F 50.9 °F 56% 29.87 in 10.0 mi ESE 3.5 mph - N/A   Clear
7:15 AM 67.3 °F 50.9 °F 56% 29.87 in 10.0 mi East 4.6 mph - N/A   Clear
7:35 AM 68.9 °F 50.9 °F 53% 29.87 in 10.0 mi East 3.5 mph - N/A   Clear
7:55 AM 69.3 °F 50.9 °F 52% 29.87 in 10.0 mi East 4.6 mph - N/A   Clear
8:15 AM 71.4 °F 50.4 °F 47% 29.87 in 10.0 mi East 3.5 mph - N/A   Clear
8:35 AM 71.6 °F 50.4 °F 47% 29.86 in 10.0 mi East 4.6 mph - N/A   Clear
8:55 AM 73.6 °F 50.7 °F 45% 29.86 in 10.0 mi East 6.9 mph - N/A   Clear
9:15 AM 75.7 °F 50.2 °F 41% 29.86 in 10.0 mi ENE 6.9 mph - N/A   Clear
9:35 AM 77.0 °F 50.0 °F 39% 29.86 in 10.0 mi East 4.6 mph - N/A   Clear
9:55 AM 78.1 °F 50.0 °F 37% 29.86 in 10.0 mi East 4.6 mph - N/A   Clear
10:15 AM 79.9 °F 48.6 °F 33% 29.85 in 10.0 mi NNW 3.5 mph - N/A   Clear
10:35 AM 80.4 °F 49.3 °F 34% 29.85 in 10.0 mi North 4.6 mph - N/A   Clear
10:55 AM 81.9 °F 49.1 °F 32% 29.85 in 10.0 mi NNE 3.5 mph - N/A   Clear
11:15 AM 81.9 °F 48.9 °F 32% 29.85 in 10.0 mi West 3.5 mph - N/A   Clear
11:35 AM 83.8 °F 49.3 °F 30% 29.84 in 10.0 mi NNW 5.8 mph - N/A   Clear
11:55 AM 84.4 °F 49.3 °F 29% 29.85 in 10.0 mi SSE 10.4 mph - N/A   Clear
12:15 PM 86.4 °F 48.7 °F 27% 29.85 in 10.0 mi SSE 15.0 mph 20.7 mph N/A   Scattered Clouds
12:35 PM 85.8 °F 47.8 °F 27% 29.84 in 10.0 mi South 23.0 mph 28.8 mph N/A   Mostly Cloudy
12:55 PM 83.7 °F 46.6 °F 27% 29.83 in 10.0 mi SSE 21.9 mph 33.4 mph N/A   Scattered Clouds
1:15 PM 87.4 °F 43.7 °F 22% 29.83 in 10.0 mi South 12.7 mph 23.0 mph N/A   Scattered Clouds
1:35 PM 90.1 °F 39.0 °F 17% 29.83 in 10.0 mi SSE 15.0 mph 18.4 mph N/A   Scattered Clouds
1:55 PM 87.3 °F 46.6 °F 24% 29.82 in 10.0 mi East 9.2 mph - N/A   Clear
2:15 PM 88.7 °F 44.2 °F 21% 29.81 in 10.0 mi South 15.0 mph 21.9 mph N/A   Clear
2:35 PM 89.1 °F 43.5 °F 20% 29.80 in 10.0 mi SSE 13.8 mph 23.0 mph N/A   Scattered Clouds
2:55 PM 88.7 °F 44.6 °F 22% 29.79 in 10.0 mi SE 4.6 mph 17.3 mph N/A   Scattered Clouds
3:15 PM 86.9 °F 43.9 °F 22% 29.78 in 10.0 mi South 15.0 mph 20.7 mph N/A   Clear
3:35 PM 86.0 °F 45.5 °F 24% 29.77 in 10.0 mi South 13.8 mph 18.4 mph N/A   Clear
3:55 PM 84.4 °F 45.3 °F 25% 29.76 in 10.0 mi SSE 11.5 mph 21.9 mph N/A   Clear
4:15 PM 84.9 °F 45.9 °F 26% 29.76 in 10.0 mi ESE 8.1 mph - N/A   Clear
4:35 PM 83.5 °F 42.6 °F 24% 29.77 in 10.0 mi SSE 11.5 mph 17.3 mph N/A Thunderstorm Clear
4:55 PM 85.3 °F 44.8 °F 24% 29.77 in 10.0 mi SSE 11.5 mph - N/A   Scattered Clouds
5:15 PM 84.6 °F 43.5 °F 24% 29.75 in 10.0 mi South 8.1 mph 19.6 mph N/A   Clear
5:35 PM 85.1 °F 43.9 °F 24% 29.74 in 10.0 mi SE 5.8 mph 19.6 mph N/A   Clear
5:55 PM 83.5 °F 43.3 °F 24% 29.75 in 10.0 mi South 23.0 mph 29.9 mph N/A Thunderstorm Clear
6:15 PM 79.0 °F 45.5 °F 31% 29.74 in 10.0 mi South 24.2 mph 33.4 mph N/A   Scattered Clouds
6:35 PM 79.5 °F 45.3 °F 30% 29.74 in 10.0 mi South 24.2 mph 35.7 mph N/A   Clear
6:55 PM 78.3 °F 44.8 °F 30% 29.74 in 10.0 mi South 26.5 mph 34.5 mph N/A   Clear
7:15 PM 77.2 °F 45.3 °F 32% 29.75 in 10.0 mi SSE 13.8 mph 17.3 mph N/A   Clear
7:35 PM 75.2 °F 46.9 °F 37% 29.77 in 10.0 mi NNE 3.5 mph - N/A   Clear
7:55 PM 73.6 °F 47.5 °F 39% 29.78 in 10.0 mi Calm Calm - N/A   Clear
8:15 PM 72.7 °F 48.9 °F 43% 29.78 in 10.0 mi SE 6.9 mph 10.4 mph N/A   Clear
8:35 PM 70.7 °F 49.3 °F 47% 29.79 in 10.0 mi SE 4.6 mph - N/A   Clear
8:55 PM 70.7 °F 49.1 °F 46% 29.82 in 10.0 mi NNW 9.2 mph - N/A   Clear
9:15 PM 70.5 °F 49.8 °F 48% 29.83 in 10.0 mi West 8.1 mph - N/A   Clear
9:35 PM 70.5 °F 54.5 °F 57% 29.83 in 10.0 mi West 16.1 mph - N/A   Clear
9:55 PM 69.1 °F 54.9 °F 60% 29.84 in 10.0 mi West 12.7 mph - N/A   Clear
10:15 PM 68.2 °F 55.0 °F 63% 29.84 in 10.0 mi West 15.0 mph 18.4 mph N/A   Clear
10:35 PM 67.3 °F 54.7 °F 64% 29.85 in 10.0 mi West 12.7 mph - N/A   Clear
10:55 PM 66.6 °F 54.5 °F 65% 29.86 in 10.0 mi West 10.4 mph - N/A   Clear
11:15 PM 65.1 °F 53.8 °F 67% 29.87 in 10.0 mi West 8.1 mph - N/A   Clear
11:35 PM 64.6 °F 54.3 °F 69% 29.87 in 10.0 mi Calm Calm - N/A   Clear
11:55 PM 62.6 °F 53.4 °F 72% 29.88 in 10.0 mi SW 4.6 mph - N/A   Clear